Flag for U.S.A. Weather past 2 weeks in Newport News, Virginia, U.S.A.

Now
79 °F

More clouds than sun.


Feels Like: 82 °F
Forecast: 74 / 86 °F
Wind: 5 mph from Southwest

Location: Newport News / Williamsburg International Airport

Current Time: Jul 28, 2015 at 10:07:32 AM

Latest Report: Jul 28, 2015 at 8:54 AM


Visibility: 10 mi

Pressure: 30.02 "Hg

Humidity: 82%

Dew point: 73 °F

Location of Newport NewsLocation

Historic Weather in Newport News — Graph

°F

Newport News temperature yesterday

Maximum temperature yesterday: 87 °F (at 2:54 PM)
Minimum temperature yesterday: 76 °F (at 3:54 AM)
Average temperature yesterday: 80 °F

Past Weeks' High & Low Weather Summary

 TemperatureHumidityPressure
High93 °F (Jul 20, 3:54 PM)97% (Jul 14, 3:54 AM)30.09 "Hg (Jul 14, 3:54 AM)
Low62 °F (Jul 26, 5:54 AM)36% (Jul 25, 2:54 PM)29.57 "Hg (Jul 15, 12:54 AM)
Average79 °F74%29.89 "Hg
* Reported Jul 13 8:54 AM — Jul 28 8:54 AM, Newport News, Weather by CustomWeather, © 2015

Note: Actual official high and low records may vary slightly from our data, if they occured in-between our weather recording intervals... More about our weather records

Advertising

Newport News weather history for previous 24 hours

 ConditionsComfort  
Time TempWeatherWind HumidityBarometerVisibility
8:54 AM
Tue, Jul 28
79 °FMore clouds than sun.5 mph82%30.02 "Hg10 mi
7:54 AM77 °FMostly cloudy.6 mph85%30.02 "Hg10 mi
6:54 AM77 °FMostly cloudy.5 mph82%30.01 "Hg10 mi
5:54 AM76 °FMostly cloudy.3 mph88%30.00 "Hg10 mi
4:54 AM77 °FMostly cloudy.7 mph82%30.00 "Hg10 mi
3:54 AM77 °FPassing clouds.5 mph82%30.00 "Hg10 mi
2:54 AM76 °FClear.7 mph85%30.01 "Hg10 mi
1:54 AM77 °FPassing clouds.8 mph82%30.01 "Hg10 mi
12:54 AM78 °FPassing clouds.8 mph82%30.02 "Hg10 mi
11:54 PM
Mon, Jul 27
79 °FPassing clouds.7 mph77%30.01 "Hg10 mi
10:54 PM80 °FPassing clouds.6 mph74%30.01 "Hg10 mi
9:54 PM81 °FClear.6 mph72%30.01 "Hg10 mi
8:54 PM82 °FSunny.9 mph65%29.99 "Hg10 mi
7:54 PM83 °FScattered clouds.12 mph65%29.98 "Hg10 mi
6:54 PM86 °FBroken clouds.8 mph57%29.96 "Hg10 mi
5:54 PM86 °FScattered clouds.6 mph55%29.97 "Hg10 mi
4:54 PM87 °FPassing clouds.12 mph53%29.97 "Hg10 mi
3:54 PM87 °FPassing clouds.8 mph55%29.98 "Hg10 mi
2:54 PM87 °FSunny.12 mph57%29.99 "Hg10 mi
1:54 PM84 °FSunny.8 mph63%30.01 "Hg10 mi
12:54 PM82 °FLight rain. Passing clouds.9 mph74%30.03 "Hg10 mi
11:54 AM79 °FLight rain. Partly sunny.7 mph82%30.04 "Hg10 mi
10:54 AM77 °FLight rain. More clouds than sun.3 mph90%30.04 "Hg10 mi
Weather by CustomWeather, © 2015

See weather overviewHow to use our weather pages